Find Starlink 5923

NORAD ID: 56489 Int'l Des: 2023-064 Owner: SPXS Country: US Constellation: starlink operational
LEOCIRCULAR

現在のビュー

3D地球を読み込み中...

About Starlink 5923

Starlink 5923 (NORAD 56489) is a starlink constellation satellite (v1.5) launched May 10, 2023 by SPXS of US. It operates in LEO, CIRCULAR orbit with a mass of 305.00 kg.

Starlink 5923について

説明を読み込み中...

次回通過

Passes for default location (London). Set your location on the main map for personalized predictions.

高度履歴

Loading altitude history...

軌道要素

1 56489U 23064AT 26195.27823486 -.00000569 00000-0 -39884-4 0 9998
2 56489 70.0003 145.3039 0002795 272.7898 87.2941 14.98335036175191
Epoch: Jul 14, 2026 • Age: 14 hours

現在のステータス

高度 592.1 km
遠地点 / 近地点 N/A
速度 7.56 km/s
衛星直下点 -58.02°S, 136.52°W
打ち上げ日 May 10, 2023
運用期間 3.1 years
タイプ internet

技術仕様

分類 Payload
質量 305.00 kg
乾燥質量 290.00 kg
総質量 305.00 kg
長さ 0.20 m
直径 2.80 m
スパン 9.00 m
形状 Box + pan
製造者 SPXS
バスタイプ Starlink
フェーズステータス In Orbit
所有者/国 SPXS/US

Most Searched